Theta_e
303 303 304 304 304 304 305 306 307 307 307 307 306 306 306 307 308 309 317 322 318 314 313 322 329 331 336 344 350 351 354 351 350 354 351 349 351 350 351 348 348 345 343 341 340
304 304 305 305 305 305 305 306 309 309 310 310 309 308 307 307 309 310 314 316 321 314 319 316 327 330 342 344 348 349 351 351 346 349 349 349 352 351 350 350 344 345 343 341 340
305 306 306 306 305 305 305 306 309 309 309 309 309 309 309 308 310 318 319 320 319 314 318 317 319 331 339 345 345 349 353 349 349 349 347 350 351 351 350 351 344 342 342 341 340
309 309 308 307 307 306 306 306 309 310 309 309 312 311 310 309 314 321 322 320 319 314 318 318 327 333 327 327 342 344 344 349 350 348 346 346 351 351 350 350 350 346 342 341 342
308 309 310 310 309 308 307 306 309 310 310 310 312 311 310 310 310 313 321 320 320 316 318 321 333 326 325 325 327 339 336 341 345 344 345 346 350 352 351 351 349 344 341 343 344
307 308 309 309 310 310 308 307 309 310 308 310 311 312 311 310 310 316 315 322 321 318 319 319 327 328 324 321 325 329 333 334 336 337 339 344 349 349 350 349 343 342 343 344 344
304 305 306 308 309 310 309 307 308 310 308 312 315 312 312 311 311 321 320 320 320 316 315 318 320 322 320 320 322 326 324 323 325 333 344 350 351 352 348 345 343 344 345 345 346
304 304 305 306 308 310 308 308 309 308 308 309 309 314 312 313 311 314 318 322 319 315 316 321 319 320 319 319 318 321 322 326 327 327 346 345 347 350 346 342 344 346 345 345 346
303 304 304 306 307 309 308 309 308 308 309 309 313 314 316 318 317 317 313 319 322 315 316 318 318 317 318 316 316 316 325 325 328 331 346 346 347 349 348 344 342 345 345 345 346
304 304 305 306 308 308 307 307 307 308 308 311 313 313 313 311 312 314 316 321 323 316 317 318 317 313 311 314 319 319 323 327 331 332 345 347 347 349 348 347 345 344 344 345 346
304 304 306 307 309 307 308 307 308 308 308 307 309 308 311 310 311 313 318 324 323 320 315 315 313 316 315 315 319 320 328 331 330 329 345 346 346 351 348 347 347 347 346 345 345
303 304 308 311 309 307 307 308 308 309 307 309 312 309 309 310 311 312 315 323 320 317 315 315 315 314 314 314 317 318 320 321 325 330 340 341 346 349 348 347 347 347 347 346 346
303 304 310 312 308 307 307 309 310 309 305 309 311 310 309 309 310 310 314 314 321 319 318 315 316 316 315 315 315 315 318 320 328 333 343 346 348 347 349 348 347 347 347 347 346
303 305 312 309 308 309 309 311 310 309 303 308 310 309 310 310 310 309 313 313 316 322 319 320 320 318 317 317 316 314 317 320 325 329 341 344 348 345 345 351 349 348 347 347 347
303 309 311 308 309 310 311 310 310 308 306 309 308 309 309 308 308 310 314 314 314 317 319 320 320 322 320 318 318 318 320 321 324 328 330 337 339 336 343 347 349 349 348 347 347
303 310 310 310 311 311 310 310 309 306 308 308 308 306 306 306 308 309 314 315 315 317 316 317 318 320 321 323 322 325 325 324 325 327 333 330 342 340 343 345 344 344 348 349 348
304 306 311 311 310 311 311 310 304 305 307 307 306 305 305 304 306 307 314 313 314 316 318 318 319 318 320 321 323 325 324 327 328 329 332 326 330 336 333 341 341 343 342 345 349
304 307 311 311 311 311 311 305 307 308 306 306 306 305 306 305 305 307 309 313 313 314 315 319 319 319 317 320 322 324 324 326 330 327 330 323 329 331 329 330 339 341 342 342 345
305 310 311 311 311 312 310 305 306 307 307 306 304 305 304 306 306 306 307 314 313 311 314 317 319 316 318 317 319 323 327 323 324 320 322 324 323 324 326 328 335 339 341 342 344
307 310 311 309 310 311 304 305 307 309 309 306 305 305 306 306 306 305 308 312 312 311 311 315 309 315 316 317 319 319 321 326 320 332 331 324 323 330 326 328 327 338 340 341 343
306 310 309 309 311 310 304 306 307 308 309 307 306 306 306 306 305 305 306 310 311 311 312 312 312 311 315 318 319 319 320 321 323 324 331 328 329 320 325 326 326 331 337 340 341
305 304 308 310 305 302 304 304 307 307 309 308 307 306 306 306 306 305 305 308 312 311 312 313 310 315 315 316 316 317 319 317 322 324 318 325 329 324 322 322 323 325 335 337 340
305 306 307 308 302 301 302 305 307 307 308 308 309 307 306 306 306 306 307 309 312 311 311 310 312 313 313 315 313 315 314 311 311 311 322 326 327 323 325 321 322 324 326 333 339
306 303 305 305 304 302 304 304 306 308 308 307 308 307 307 307 305 305 306 309 310 310 314 312 307 310 313 315 313 314 314 313 313 316 318 324 325 323 322 321 321 322 324 325 328
305 302 303 301 303 304 302 303 306 308 307 308 307 308 308 309 307 305 306 305 306 310 311 308 308 310 310 312 313 313 314 314 314 314 317 320 322 322 321 321 322 330 334 333 329
305 305 305 305 304 305 303 305 306 307 306 307 307 308 307 307 307 306 306 305 305 307 308 305 305 310 309 311 312 313 313 315 316 316 315 318 320 323 335 338 337 337 339 340 337
305 306 306 306 306 306 306 307 306 306 308 307 307 306 306 306 307 307 306 305 304 306 305 307 307 310 310 310 311 316 316 318 320 318 322 324 324 327 338 332 327 327 332 338 342
Wind_Speed
22 22 22 22 22 22 22 19 19 19 19 20 19 16 18 15 14 17 23 18 20 10 23 23 20 16 15 13 7 3 1 2 3 4 4 10 3 8 8 18 8 14 13 31 40
23 23 23 24 24 23 23 21 18 19 22 22 20 18 17 18 17 21 14 17 14 21 25 31 26 19 8 6 6 3 2 6 4 2 2 4 7 11 6 15 5 10 17 40 43
24 25 25 24 23 23 23 21 19 20 20 22 21 19 17 16 15 1 3 9 25 30 22 26 26 18 7 8 8 6 5 4 2 3 3 5 8 9 15 4 12 29 38 48 46
28 28 27 26 25 23 22 21 19 21 22 26 23 18 14 11 2 2 3 5 31 31 28 29 31 15 5 5 12 3 9 11 3 3 9 4 12 7 16 6 15 26 42 54 47
28 29 29 28 27 25 21 20 20 22 24 23 19 13 8 7 9 9 5 2 33 34 34 33 35 12 7 8 5 6 4 5 14 17 13 11 13 7 16 2 12 30 46 45 42
29 28 28 28 29 26 23 20 20 23 27 19 14 13 7 3 6 7 8 4 32 37 34 32 24 17 11 4 8 8 16 17 17 21 13 9 2 10 8 12 30 40 41 39 42
31 31 31 29 31 28 22 19 20 23 22 15 18 15 13 12 6 6 1 7 26 34 36 32 6 20 8 1 12 11 4 5 8 5 5 12 2 0 19 25 35 35 35 33 34
33 34 32 31 31 29 21 19 19 21 13 19 17 13 6 2 7 10 3 9 22 31 29 31 9 19 4 1 2 6 4 1 4 8 7 7 5 5 22 31 32 33 34 33 32
34 35 34 30 30 26 20 21 18 9 8 17 12 11 4 4 7 1 10 14 16 30 18 22 15 5 5 3 4 4 4 6 5 8 5 7 3 8 24 26 29 32 34 32 31
35 35 34 30 27 20 22 19 15 5 11 7 12 6 7 16 16 9 3 12 19 28 17 9 10 2 2 4 7 5 3 3 6 5 7 6 3 11 22 24 25 29 31 32 33
35 35 36 32 23 18 17 9 11 2 21 5 16 7 16 20 5 5 5 17 15 18 7 8 5 20 16 5 4 4 4 5 4 6 6 9 7 15 22 20 24 28 30 32 36
37 38 37 30 16 15 13 11 12 13 11 9 3 12 13 11 8 16 6 10 9 5 6 4 14 8 6 7 6 7 2 3 5 7 7 7 13 9 16 23 29 31 32 34 32
36 35 35 24 8 12 11 18 21 13 2 8 4 11 10 7 4 18 10 1 4 6 8 8 6 13 12 6 10 9 10 4 2 4 2 4 3 6 10 17 21 25 28 30 36
33 35 28 13 5 15 9 22 20 5 4 5 6 9 14 6 1 15 15 4 4 11 8 6 10 14 12 10 11 9 10 12 5 4 4 6 4 6 10 18 19 27 30 32 34
30 28 20 9 8 16 21 24 9 5 2 4 6 7 13 8 12 17 11 2 1 4 6 8 6 9 9 17 12 7 12 12 8 6 4 3 1 6 12 14 19 25 34 35 38
28 17 14 10 11 15 19 19 5 5 3 3 5 6 8 9 9 10 12 7 3 3 2 6 4 4 9 10 15 6 3 4 2 5 10 12 8 6 7 15 19 24 33 37 39
28 16 8 13 24 16 20 6 4 2 5 4 4 5 3 6 8 8 5 11 5 5 7 7 3 2 2 6 8 7 6 2 3 5 12 8 6 15 4 12 17 23 35 41 41
28 21 5 13 14 15 18 4 3 3 4 4 4 2 4 4 4 9 3 4 7 4 3 4 2 3 6 1 8 9 11 6 7 4 9 5 9 13 14 19 22 27 36 35 38
26 12 1 18 22 14 9 5 1 1 5 5 6 3 4 4 3 3 3 2 4 5 4 4 5 4 3 2 1 4 14 9 3 1 1 4 8 9 5 7 7 16 24 35 42
24 5 12 23 15 1 5 3 3 3 6 3 0 2 2 3 1 2 1 2 3 4 0 3 4 2 5 6 8 7 4 3 1 10 8 4 6 7 9 15 9 7 22 33 40
16 3 18 18 6 9 4 1 3 9 11 4 2 2 1 0 1 2 4 1 2 2 2 2 3 7 5 4 2 5 4 3 4 7 10 3 8 6 7 9 12 13 28 32 38
10 3 22 18 8 4 2 5 6 6 8 4 3 3 2 3 2 2 6 3 5 2 2 1 4 4 9 6 5 4 3 3 3 6 4 5 11 4 9 8 8 11 28 33 35
11 7 15 15 4 3 6 5 3 5 5 6 6 5 5 3 3 1 2 3 6 3 4 4 1 3 8 3 4 4 2 4 3 3 7 7 6 7 12 5 12 17 21 31 34
7 4 9 14 8 3 6 3 5 9 4 4 3 5 5 5 0 4 2 2 2 4 5 3 2 5 5 1 4 5 7 3 2 1 6 6 4 3 9 8 9 16 14 12 16
7 2 3 3 6 5 1 3 5 5 6 1 2 2 2 2 4 4 2 6 6 7 3 4 3 4 11 13 11 14 18 10 5 9 4 6 5 7 10 9 6 10 12 16 19
4 3 3 2 4 6 3 3 7 4 3 5 3 4 6 5 7 5 4 2 6 3 3 3 2 1 8 10 14 15 15 13 12 15 13 16 20 6 5 4 12 15 17 17 18
4 2 1 2 3 3 2 3 5 12 6 6 7 6 5 9 10 14 20 17 9 5 4 4 2 2 6 5 5 7 10 8 10 9 5 5 5 12 4 10 15 17 18 18 19
Wind_Direction
10 6 2 358 356 355 355 354 350 347 340 335 327 323 316 304 284 268 259 266 221 194 180 174 173 173 175 190 186 234 275 253 245 194 176 162 158 123 148 139 162 178 161 168 165
7 4 359 355 352 351 351 349 348 344 340 336 331 325 321 310 296 280 294 246 199 187 185 185 174 166 172 190 200 189 195 220 220 226 38 162 139 139 131 146 92 130 155 163 166
5 2 357 353 349 346 345 342 338 338 338 332 324 325 317 318 311 94 305 225 191 196 195 188 181 162 170 175 200 189 214 223 259 254 333 126 146 160 142 214 179 154 156 163 167
10 6 0 352 346 342 341 334 329 330 327 332 322 306 303 306 283 251 306 255 183 189 184 174 168 158 153 197 205 220 235 247 288 309 331 195 161 156 173 194 207 186 172 167 170
2 1 1 355 347 341 338 329 326 327 324 333 339 325 295 277 260 269 255 194 176 179 178 173 170 157 174 185 170 227 280 243 258 278 281 240 190 185 195 223 172 168 164 167 172
358 357 356 354 346 343 336 325 323 325 327 325 334 346 299 253 259 276 229 191 186 183 182 184 188 176 177 202 182 209 235 283 285 277 278 203 190 175 149 163 153 160 165 171 177
356 355 354 349 345 343 337 326 323 324 330 329 325 323 279 267 207 92 117 198 199 193 189 190 203 179 161 107 237 245 302 318 256 256 239 146 14 127 156 160 151 160 167 175 182
355 351 355 347 343 343 344 333 327 322 331 334 334 337 257 335 220 239 316 206 197 193 196 194 187 184 199 242 353 171 130 194 281 185 216 153 227 131 156 153 159 165 173 178 183
354 348 354 350 345 345 346 339 327 332 332 344 347 337 352 54 43 212 345 205 186 192 181 204 186 213 220 94 12 355 198 191 299 197 175 187 208 165 166 164 168 172 178 183 186
352 347 350 352 350 350 346 344 343 1 351 3 355 335 353 328 317 308 1 186 174 183 178 155 184 146 82 132 204 197 199 214 195 210 176 179 192 166 174 169 176 182 183 188 192
352 347 348 351 352 355 354 4 4 20 332 309 304 283 320 338 15 92 82 157 149 153 166 173 153 208 197 156 186 187 195 206 231 237 157 213 187 185 179 179 182 187 188 194 202
352 345 345 347 356 7 18 53 28 333 309 0 335 318 349 350 39 48 78 165 144 156 124 115 220 202 176 182 193 240 243 269 293 267 187 215 232 176 185 200 192 188 191 195 198
351 340 343 350 32 19 24 13 347 334 295 305 360 352 343 340 23 18 38 335 172 147 178 173 231 170 177 172 197 229 231 218 232 333 230 101 286 159 200 203 206 210 206 197 197
350 338 347 9 59 18 5 344 332 300 53 288 346 21 347 334 63 3 359 190 195 190 162 229 250 177 183 189 178 220 206 240 231 267 231 153 257 197 192 200 204 207 206 204 203
351 345 353 28 10 354 337 344 327 156 16 17 357 12 13 59 343 356 357 98 91 183 141 219 200 186 191 215 182 227 173 211 209 226 289 237 196 257 188 204 209 209 209 208 209
349 346 10 10 356 345 341 343 123 48 243 5 14 353 9 32 355 333 13 39 48 325 348 220 262 208 206 194 198 166 175 160 147 176 238 232 203 241 185 207 215 215 212 209 210
343 340 359 359 352 341 339 334 44 125 342 8 334 7 43 356 346 7 42 48 37 35 14 340 257 231 228 185 195 163 116 246 228 201 234 199 226 235 217 205 209 206 213 211 210
343 339 266 345 337 337 341 54 156 41 339 335 347 8 66 21 356 353 37 39 24 69 74 21 218 19 3 269 197 186 171 172 202 195 221 174 223 235 216 232 224 221 217 208 207
345 2 230 326 312 322 342 54 110 357 281 309 325 62 4 346 55 52 38 109 21 4 95 27 268 337 182 295 357 218 207 177 109 182 6 207 275 285 224 234 209 195 188 198 204
346 15 11 345 347 222 71 121 156 27 317 349 297 32 169 313 81 55 69 95 127 11 160 179 309 285 300 301 222 195 204 121 303 218 233 255 248 235 191 225 230 181 197 203 207
354 51 352 354 17 63 94 344 328 8 3 341 339 341 136 167 250 220 179 121 130 303 66 135 117 296 345 207 154 15 219 243 176 186 225 154 248 215 221 220 205 211 215 211 209
7 30 355 2 49 35 56 309 322 10 356 344 355 35 52 342 288 255 200 143 160 147 111 148 147 268 251 265 342 171 247 9 236 240 241 184 241 230 235 246 239 241 220 226 225
356 340 9 11 66 10 328 321 317 341 29 13 15 12 1 354 319 278 356 118 144 130 163 169 302 319 309 73 37 75 54 76 242 266 223 204 254 205 262 248 239 253 236 232 229
360 13 21 48 64 84 5 322 341 1 74 32 8 48 14 355 208 311 310 20 138 204 199 132 183 204 226 323 359 315 300 79 95 308 312 224 247 279 239 249 258 239 259 253 238
23 63 36 354 6 343 16 335 345 7 358 40 70 86 11 306 325 261 255 5 317 265 76 120 206 277 268 269 266 270 281 291 202 226 219 298 290 268 262 263 294 311 309 294 271
40 25 3 324 0 340 30 357 335 346 298 317 198 233 278 241 234 285 313 160 252 36 86 36 279 298 287 264 235 250 262 273 246 258 233 250 277 241 310 47 20 358 341 311 292
49 32 12 3 335 331 2 330 321 315 269 259 314 321 278 267 270 265 266 258 239 182 151 151 200 268 262 283 256 256 234 200 101 34 322 208 284 297 358 43 22 1 351 335 306